MSSSMGSJ

Guest
Details From MSSS - ILOPANGO INTL
To MGSJ - SAN JOSE
Flight Number -
Tags generated
Created
Modified
Stats Distance 101 nm / 187 km
Max Altitude 8,700 ft / 2,652 m
Waypoints 3
Social Downloads 0
Likes 0
Share VATSIM

Download

Looking for another format? Having issues loading an existing format? Contact us
Advertisement - Login to hide

Notes

Basic altitude profile: - Ascent Rate: 2500ft/min - Ascent Speed: 250kts - Cruise Altitude: 35000ft - Cruise Speed: 420kts - Descent Rate: 1500ft/min - Descent Speed: 250kts Options: - Use NATs: no - Use PACOTS: no - Use low airways: yes - Use high airways: no

Route

MSSS ALERA MGSJ

ID Type Via Altitude Latitude Longitude Leg Dist Tot Dist Heading (true) Name
O MSSS APT - 0 ft / 0 m 13.69880˚ -89.11985˚ - 0 nm - ILOPANGO INTL
ALERA FIX - 8,700 ft / 2,652 m 13.75139˚ -89.53722˚ 24 nm 24 nm 277° / 277° -
O MGSJ APT - 0 ft / 0 m 13.93619˚ -90.83583˚ 76 nm 101 nm 278° / 278° SAN JOSE

Altitude Profile

Advertisement - Login to hide

MSSS

Details ICAO MSSS
Name ILOPANGO INTL
Region El Salvador
Timezone America/El_Salvador (UTC-6.0)
Stats Elevation 2,020 ft / 616 m (AMSL)
Location 13.698802° -89.119849°
Runways 1
Magnetic Variation 0.388° E

METAR

MSSS 261850Z 16005KT 9999 FEW023 28/24 Q1012 A2989 HZ

Decode

TAF

Not found

Departure Runways

ID Width Length Bearing (true) Bearing (mag) Surface Threshold Offset Overrun Length
15 148 ft / 45 m 7,350 ft / 2,240 m 153.66° 153.27° Asphalt 0 ft / 0 m 0 ft / 0 m
33 148 ft / 45 m 7,350 ft / 2,240 m 333.66° 333.27° Asphalt 0 ft / 0 m 0 ft / 0 m

MGSJ

Details ICAO MGSJ
Name SAN JOSE
Region Guatemala
Timezone America/Guatemala (UTC-6.0)
Stats Elevation 29 ft / 9 m (AMSL)
Location 13.936191° -90.835832°
Runways 1
Magnetic Variation 1.260° E

METAR

MGSJ 261900Z 11010KT 9999 FEW016 OVC200 31/26 Q1009 A2980

Decode

TAF

TAF MGSJ 261700Z 2618/2718 18008KT 8000 FEW020 TX32/2620Z TN25/2712Z TEMPO 2619/2706 24012KT 7000 TSRA SCT020TCU FEW025CB BECMG 2701/2703 00000KT BKN016 BECMG 2706/2708 FEW016 BECMG 2715/2717 18008KT FEW020

Decode

Destination Runways

ID Width Length Bearing (true) Bearing (mag) Surface Threshold Offset Overrun Length
15 150 ft / 46 m 6,639 ft / 2,024 m 156.87° 155.61° Asphalt 0 ft / 0 m 0 ft / 0 m
33 150 ft / 46 m 6,639 ft / 2,024 m 336.87° 335.61° Asphalt 0 ft / 0 m 0 ft / 0 m